This demonstration page uses our WeatherBlox Daily Observations layout. Learn more.

Left ArrowRight Arrow

53.62937, 11.41316

Hourly Observations for April 3, 2022

Temp ( °F °C ) Dew Point ( °F °C ) Humidity (%) Winds ( mph kmh ) Pressure ( in mb ) Visibility ( mi km ) Precip ( " mm )
12:20 am 00:20 Mostly Clear 30 -1 21 -6 69 69 W 3 6 30.12 1020 30 48 N/A
12:50 am 00:50 Mostly Clear 30 -1 21 -6 69 69 W 2 4 30.12 1020 30 48 N/A
1:20 am 01:20 Mostly Clear 30 -1 21 -6 69 69 W 3 6 30.12 1020 30 48 N/A
1:50 am 01:50 Mostly Clear 28 -2 21 -6 74 74 W 3 6 30.12 1020 30 48 N/A
2:20 am 02:20 Mostly Clear 27 -3 21 -6 80 80 VRB 2 4 30.12 1020 30 48 N/A
2:50 am 02:50 Mostly Cloudy 28 -2 21 -6 74 74 SW 3 6 30.12 1020 30 48 N/A
3:20 am 03:20 Mostly Cloudy 30 -1 21 -6 69 69 VRB 2 4 30.09 1019 30 48 N/A
3:50 am 03:50 Mostly Cloudy 28 -2 23 -5 80 80 VRB 1 2 30.09 1019 30 48 N/A
4:20 am 04:20 Mostly Cloudy 28 -2 23 -5 80 80 VRB 2 4 30.09 1019 30 48 N/A
4:50 am 04:50 Mostly Clear 27 -3 21 -6 80 80 VRB 2 4 30.09 1019 30 48 N/A
5:20 am 05:20 Mostly Clear 27 -3 21 -6 80 80 VRB 2 4 30.09 1019 30 48 N/A
5:50 am 05:50 Mostly Clear 25 -4 19 -7 80 80 VRB 2 4 30.07 1018 30 48 N/A
6:20 am 06:20 Mostly Clear 25 -4 19 -7 80 80 WSW 3 6 30.07 1018 30 48 N/A
6:50 am 06:50 Mostly Sunny 27 -3 21 -6 80 80 VRB 2 4 30.07 1018 30 48 N/A
7:20 am 07:20 Mostly Sunny 27 -3 23 -5 86 86 WSW 3 6 30.07 1018 30 48 N/A
7:50 am 07:50 Mostly Sunny 28 -2 25 -4 86 86 WSW 5 7 30.07 1018 7 11 N/A
8:20 am 08:20 Mostly Sunny 32 0 27 -3 80 80 WSW 5 7 30.06 1018 30 48 N/A
8:50 am 08:50 Mostly Sunny 34 1 28 -2 81 81 SW 3 6 30.06 1018 30 48 N/A
9:20 am 09:20 Mostly Cloudy 36 2 28 -2 75 75 WSW 6 9 30.06 1018 30 48 N/A
9:50 am 09:50 Partly Cloudy 39 4 28 -2 65 65 W 7 11 30.06 1018 30 48 N/A
10:20 am 10:20 Mostly Sunny 39 4 30 -1 70 70 W 12 19 30.06 1018 7 11 N/A
10:50 am 10:50 Mostly Sunny 39 4 32 0 75 75 W 10 17 30.06 1018 7 11 N/A
11:20 am 11:20 Mostly Sunny 41 5 32 0 70 70 W 9 15 30.06 1018 30 48 N/A
11:50 am 11:50 Mostly Cloudy 43 6 30 -1 61 61 W 9 15 30.06 1018 30 48 N/A
12:20 pm 12:20 Mostly Cloudy 43 6 28 -2 57 57 W 12 19 30.06 1018 30 48 N/A
12:50 pm 12:50 Mostly Sunny 46 8 30 -1 53 53 WNW 8 13 30.03 1017 30 48 N/A
1:20 pm 13:20 Partly Cloudy 43 6 30 -1 61 61 WNW 9 15 30.03 1017 30 48 N/A
1:50 pm 13:50 Mostly Cloudy 45 7 28 -2 53 53 VRB 8 13 30.03 1017 30 48 N/A
2:20 pm 14:20 Mostly Cloudy with Light Showers 43 6 32 0 66 66 W 13 20 30.03 1017 30 48 N/A
2:50 pm 14:50 Partly Cloudy with Showers Nearby 43 6 37 3 81 81 NNW 5 7 30.03 1017 30 48 N/A
3:20 pm 15:20 Partly Cloudy with Showers Nearby 43 6 34 1 71 71 VRB 3 6 30.00 1016 30 48 N/A
3:50 pm 15:50 Mostly Cloudy with Light Showers 45 7 34 1 66 66 W 12 19 30.00 1016 30 48 N/A
4:20 pm 16:20 Partly Cloudy with Showers Nearby 43 6 34 1 71 71 W 12 19 30.00 1016 30 48 N/A
4:50 pm 16:50 Mostly Cloudy with Showers Nearby 45 7 34 1 66 66 W 12 19 29.97 1015 30 48 N/A
5:20 pm 17:20 Partly Cloudy with Showers Nearby 45 7 36 2 71 71 W 10 17 29.97 1015 30 48 N/A
5:50 pm 17:50 Partly Cloudy with Light Showers 41 5 36 2 81 81 W 8 13 29.98 1015 30 48 N/A
6:20 pm 18:20 Partly Cloudy with Showers Nearby 43 6 36 2 76 76 W 10 17 29.97 1015 30 48 N/A
6:50 pm 18:50 Mostly Cloudy 41 5 34 1 76 76 W 14 22 29.98 1015 30 48 N/A
7:20 pm 19:20 Partly Cloudy 41 5 34 1 76 76 W 12 19 29.98 1015 30 48 N/A
7:50 pm 19:50 Mostly Sunny 39 4 34 1 81 81 W 8 13 29.98 1015 30 48 N/A
8:20 pm 20:20 Partly Cloudy 39 4 34 1 81 81 W 9 15 29.98 1015 30 48 N/A
8:50 pm 20:50 Mostly Cloudy 39 4 34 1 81 81 W 8 13 29.98 1015 30 48 N/A
9:20 pm 21:20 Mostly Cloudy 41 5 34 1 76 76 W 10 17 29.98 1015 30 48 N/A
9:50 pm 21:50 Cloudy 41 5 34 1 76 76 WSW 10 17 29.98 1015 30 48 N/A
10:20 pm 22:20 Cloudy 39 4 34 1 81 81 WSW 9 15 29.98 1015 30 48 N/A
10:50 pm 22:50 Cloudy 39 4 34 1 81 81 WSW 10 17 29.98 1015 30 48 N/A
11:20 pm 23:20 Mostly Cloudy 39 4 34 1 81 81 WSW 9 15 29.95 1014 30 48 N/A
11:50 pm 23:50 Mostly Cloudy 39 4 34 1 81 81 WSW 9 15 29.95 1014 30 48 N/A

Powered by AerisWeather